Theta_e
304 304 304 304 303 302 302 303 304 305 306 305 304 304 303 303 303 303 303 303 303 304 303 303 303 302 301 301 301 302 302 303 303 303 303 303 303 304 304 304 304 304 304 304 304 304 303 303 303 303 303 303 303 303 303 303 304 304 304 304 304 305 305 305 305 306 306 306 305 305 304 304 304 304 304 305 306 306 307 307 308 308 309 310 311 312
303 302 302 301 301 301 301 302 303 303 304 303 302 302 301 301 302 303 303 302 302 302 302 302 301 301 301 301 300 301 301 301 302 302 302 302 302 302 302 302 302 302 302 303 303 303 302 302 302 302 301 301 301 301 302 302 302 302 302 302 302 302 302 303 303 303 303 303 303 302 302 302 302 303 303 304 304 305 305 306 306 307 308 309 310 311
303 301 301 300 300 301 301 301 302 302 302 301 301 301 300 300 301 301 302 301 301 301 300 300 300 300 301 300 300 299 300 300 300 300 300 300 301 301 301 301 301 301 301 301 301 301 301 301 301 300 300 300 300 300 300 300 300 300 300 300 300 300 300 300 300 301 301 301 301 300 300 300 301 301 302 302 303 303 304 304 305 306 307 308 309 310
304 302 301 301 300 300 300 301 301 301 300 301 301 301 300 300 300 300 301 300 299 299 299 299 299 299 299 300 300 299 298 299 299 299 299 299 299 299 300 299 299 300 300 300 300 300 300 299 299 299 299 299 299 299 299 299 299 299 299 298 298 298 299 299 299 299 299 299 299 299 299 300 300 300 301 301 301 302 302 303 303 304 305 306 307 308
304 303 302 301 300 299 300 301 300 299 299 299 300 300 300 300 299 299 300 299 298 298 297 297 297 297 297 299 299 298 297 298 298 298 298 298 298 298 299 299 299 299 299 299 299 299 299 298 298 298 298 298 298 298 298 298 298 298 298 298 298 297 298 298 298 298 298 298 298 299 299 299 299 299 300 300 300 301 301 302 302 303 303 304 305 306
304 303 301 300 299 299 299 299 299 298 298 298 298 298 298 298 298 298 298 297 297 296 296 296 296 296 296 297 297 296 296 296 296 296 297 297 297 297 297 297 297 298 298 298 298 298 298 298 297 297 297 297 298 298 297 297 297 297 297 297 297 297 297 297 297 297 297 297 298 298 298 298 298 299 299 299 300 300 300 301 301 302 303 303 304 304
302 300 299 299 298 298 297 297 296 296 296 296 296 297 296 296 297 297 297 296 296 295 295 296 296 296 296 296 295 295 295 295 295 295 295 295 295 296 296 296 296 296 297 297 297 297 297 297 297 297 297 297 297 297 297 296 296 296 296 296 296 296 296 296 297 297 297 297 297 298 298 298 298 298 298 299 299 300 300 300 301 301 302 302 303 304
300 299 297 297 296 296 296 295 294 294 295 295 295 295 295 295 296 296 296 296 296 295 295 295 295 295 295 295 295 295 295 295 295 295 295 295 295 295 295 295 295 295 295 296 296 296 296 296 296 296 296 296 296 296 296 295 295 295 295 295 295 295 296 296 296 297 297 297 297 297 297 298 298 298 298 298 299 299 300 300 301 301 302 302 302 303
299 298 297 296 295 295 295 294 294 294 294 295 295 295 295 295 295 295 295 295 295 295 294 294 294 294 294 295 295 295 295 295 296 296 295 295 295 295 295 294 294 294 294 295 295 295 295 295 295 295 295 295 295 295 294 294 294 294 294 295 295 295 296 296 296 297 297 297 297 297 298 298 298 298 298 298 298 299 299 300 300 301 301 301 302 302
297 297 296 296 295 295 296 296 294 293 293 294 294 295 295 295 294 294 294 294 294 294 293 293 293 293 294 294 295 295 294 294 294 294 294 293 293 293 293 293 294 294 293 294 294 294 294 294 294 293 293 293 293 293 293 293 293 294 294 294 294 295 295 296 296 296 297 297 297 297 297 298 298 298 298 298 298 298 298 299 299 300 300 300 301 301
294 294 294 295 295 295 296 296 295 293 293 293 293 293 294 294 294 294 293 293 293 293 293 293 293 293 293 293 294 294 293 293 293 293 293 292 292 292 292 292 292 292 292 293 293 293 293 293 292 292 292 292 292 292 292 292 292 293 293 293 294 294 295 295 295 296 296 296 296 297 297 297 297 297 297 297 297 298 298 298 298 298 299 299 299 300
292 292 293 294 294 294 294 294 293 292 292 292 292 292 292 293 293 294 293 293 293 293 293 292 293 293 292 292 292 292 292 292 293 293 293 293 292 292 291 291 291 292 292 292 292 292 292 291 291 291 291 291 291 291 291 291 292 292 293 293 293 294 294 294 295 295 295 295 296 296 296 296 296 296 297 297 297 297 297 297 297 297 297 298 298 299
292 292 292 293 293 293 293 292 292 291 291 292 292 293 293 293 292 293 293 293 293 293 293 292 292 292 292 292 291 291 291 291 292 292 293 293 293 292 291 291 291 292 292 292 292 292 292 291 291 290 290 290 290 290 291 291 292 292 292 293 293 293 294 294 294 294 295 295 295 295 295 296 296 296 296 296 296 296 296 296 296 296 297 297 297 298
292 292 292 292 293 293 293 293 292 292 292 293 294 295 294 292 291 291 292 292 293 292 292 291 291 292 292 291 291 290 290 290 291 292 292 292 292 292 291 291 291 291 291 291 291 292 292 291 291 291 290 290 290 290 291 291 291 292 292 292 293 293 293 294 294 294 294 294 294 295 295 295 295 295 295 296 296 296 296 296 296 296 296 296 297 297
293 293 292 292 293 294 293 293 293 293 294 294 293 293 292 291 290 290 291 291 292 292 291 291 291 292 292 291 290 290 290 290 290 291 291 292 292 292 290 290 290 291 291 291 291 291 291 291 291 291 290 290 290 290 290 291 291 292 292 292 293 293 293 293 294 294 294 294 294 294 295 295 295 295 295 295 295 295 295 295 295 296 296 296 296 296
293 293 292 293 293 294 294 293 293 293 293 292 291 291 291 290 290 290 291 292 292 291 291 291 291 292 292 290 290 289 289 289 290 290 290 291 292 291 290 289 289 290 290 290 290 291 291 291 291 290 290 290 290 289 289 290 291 291 292 292 292 293 293 293 293 293 294 294 294 294 294 294 294 295 295 295 295 295 295 295 295 295 295 295 295 296
292 292 292 293 293 294 293 292 292 292 292 291 290 290 291 291 291 291 291 292 292 291 291 291 291 291 292 290 289 289 289 289 289 289 289 290 291 291 290 289 289 289 290 290 290 290 290 290 290 290 290 290 289 289 289 290 290 291 292 292 292 292 293 293 293 293 293 293 294 294 294 294 294 294 294 294 294 294 294 294 294 294 294 294 295 295
291 291 291 292 293 293 292 291 290 291 291 290 289 290 290 291 291 291 291 291 291 291 291 291 291 291 292 292 290 288 289 288 288 289 288 289 290 290 289 289 289 289 289 289 290 290 290 290 290 290 290 289 289 289 289 290 290 291 291 292 292 292 292 292 292 292 293 293 293 293 293 293 293 293 293 293 293 293 293 293 293 293 294 294 294 294
291 291 291 291 292 293 292 291 290 290 290 290 290 290 289 290 290 290 290 291 291 291 291 291 291 291 291 292 290 288 288 288 288 288 288 288 290 290 289 288 288 288 289 289 290 290 290 290 290 290 289 289 288 289 289 290 290 291 291 291 291 292 292 292 292 292 292 292 292 292 292 292 292 292 292 292 292 292 293 293 293 293 293 293 293 294
292 291 291 291 292 292 292 292 292 292 291 291 291 290 290 289 289 289 290 290 290 291 291 291 290 290 290 291 290 289 288 288 288 287 287 288 289 289 289 288 288 287 288 289 289 290 290 290 290 289 289 288 288 288 289 290 290 291 291 291 291 291 291 291 291 291 291 291 291 291 291 291 291 292 292 292 292 292 292 292 293 293 293 293 293 293
293 293 292 293 293 292 293 293 293 293 293 292 292 291 290 290 289 289 289 289 289 289 289 289 290 290 291 290 289 289 288 288 287 287 287 287 288 288 288 288 287 287 287 288 289 290 290 290 290 289 289 288 288 288 289 289 290 290 291 291 290 290 290 290 290 290 290 290 291 291 291 291 291 291 291 291 291 292 292 292 292 292 292 292 293 293
293 294 294 294 294 293 294 295 295 294 294 293 292 291 291 290 290 289 289 289 289 288 289 289 290 290 289 289 289 288 288 287 287 286 286 286 287 288 288 287 287 286 286 287 289 289 289 289 289 289 289 288 288 288 288 289 290 290 290 290 290 290 289 289 290 290 290 290 290 290 291 291 291 291 291 291 291 291 292 292 292 292 292 292 292 292
293 294 295 294 294 294 295 295 295 294 294 294 293 292 292 291 291 291 290 289 289 289 289 289 289 289 288 289 288 288 287 287 287 286 285 285 286 287 287 287 286 286 286 287 288 289 289 289 289 289 289 288 288 288 288 289 289 290 290 290 289 289 289 289 289 289 290 290 290 290 290 290 290 290 290 291 291 291 291 291 291 291 291 291 291 291
294 295 295 295 294 294 294 294 293 293 293 293 293 293 293 292 291 291 290 290 290 289 289 288 288 288 288 288 288 287 286 286 286 286 285 285 286 287 287 287 286 285 286 287 288 288 288 288 289 289 289 288 288 288 288 289 289 289 289 289 289 289 289 289 289 289 289 289 289 289 290 290 290 290 290 290 290 290 290 290 290 290 290 291 291 291
295 295 295 294 294 294 293 293 292 292 292 292 291 290 290 290 289 289 289 289 289 288 288 287 287 287 287 287 287 287 286 286 286 286 285 285 285 286 287 287 286 285 285 287 288 288 288 288 288 289 289 289 288 287 288 288 289 289 289 289 288 288 288 288 288 289 289 289 289 289 289 289 289 290 290 290 290 290 290 290 290 290 290 290 290 290
295 295 295 294 294 293 292 292 292 292 292 291 290 289 289 289 289 288 288 288 287 287 287 286 286 287 287 286 286 286 286 285 285 285 285 285 285 285 287 286 286 285 285 286 287 287 287 287 288 289 289 289 288 287 287 288 288 288 288 288 288 288 288 288 288 288 288 288 288 289 289 289 289 289 289 289 289 289 289 290 290 290 290 290 290 290
294 294 293 293 293 292 292 292 292 292 291 291 291 290 290 290 289 288 287 287 287 287 286 286 286 286 286 286 285 286 286 285 285 285 285 284 284 284 286 286 286 285 284 285 286 287 287 287 287 288 289 289 288 288 287 287 287 288 288 288 288 288 288 288 288 288 288 288 288 288 288 288 288 289 289 289 289 289 289 289 289 289 289 289 289 289
293 293 293 292 292 292 292 292 292 292 292 292 291 291 291 290 289 288 287 287 287 287 286 285 285 285 285 285 285 286 287 286 285 285 285 284 284 284 285 286 285 285 284 285 286 287 287 287 287 288 288 288 288 287 287 287 287 287 288 288 288 288 288 288 287 287 287 287 288 288 288 288 288 288 288 288 289 289 289 289 289 289 289 288 288 288
293 293 292 293 292 292 292 292 292 292 292 292 292 292 292 290 289 288 289 288 287 286 285 285 285 285 285 285 285 286 286 286 285 285 285 284 283 284 285 285 285 285 285 285 285 286 287 287 287 287 287 287 287 287 287 287 287 288 288 288 288 288 287 287 287 287 287 287 287 287 288 288 288 288 288 288 288 288 288 288 288 288 288 288 288 288
293 293 293 293 293 293 293 293 292 292 292 293 292 292 292 291 290 290 290 288 287 286 285 285 285 285 284 284 284 284 284 285 285 285 285 283 283 284 285 285 285 285 285 284 283 284 285 286 287 287 286 286 286 287 287 287 288 288 288 288 288 287 287 287 287 287 287 287 287 287 287 287 287 288 288 288 288 288 288 288 288 288 287 287 287 287
292 292 292 292 293 293 293 293 293 293 293 293 292 292 292 292 291 291 289 288 287 287 286 286 285 285 284 283 283 283 283 284 285 285 285 283 283 284 285 284 285 285 286 284 282 282 282 285 286 286 286 286 286 287 287 287 287 287 287 287 287 287 287 286 286 286 286 287 287 287 287 287 287 287 287 287 287 287 287 287 287 287 287 286 286 286
292 292 292 292 292 292 292 292 292 292 293 293 292 292 292 292 291 291 290 289 288 287 287 286 286 285 285 284 283 283 284 285 285 285 285 284 284 284 285 284 284 285 285 285 283 282 281 283 284 286 286 287 287 287 287 287 287 287 287 286 286 286 286 286 286 286 286 287 287 287 287 287 287 287 287 287 287 287 287 287 287 287 286 286 286 286
291 291 291 291 290 290 290 290 291 291 292 292 292 292 292 291 291 290 290 290 289 288 287 286 286 285 285 284 284 284 285 286 286 286 286 284 284 284 284 284 284 284 285 285 284 283 282 282 283 284 285 286 287 287 287 287 287 287 287 286 286 286 286 286 286 286 286 286 287 287 287 286 286 287 286 287 287 287 287 287 287 287 286 286 285 285
291 291 290 290 289 289 289 289 290 290 290 291 291 291 291 291 291 290 290 290 289 289 288 287 286 285 285 284 284 284 285 286 287 287 286 285 284 284 284 284 284 284 284 284 284 284 283 283 283 284 284 285 286 287 287 287 287 287 287 286 285 285 285 286 286 286 286 286 286 286 286 286 286 286 286 286 286 286 287 287 287 287 287 286 286 285
290 290 290 289 289 289 289 289 289 289 290 290 290 290 290 290 291 290 290 290 289 289 289 288 287 287 286 285 284 284 285 286 288 288 287 286 285 284 284 284 284 284 283 283 283 283 282 283 283 283 283 283 284 285 286 287 287 287 286 286 285 285 285 285 286 286 286 286 286 286 286 286 286 286 286 286 286 286 286 286 287 287 287 287 286 286
289 289 289 289 289 289 288 288 289 289 289 289 289 290 290 290 290 290 290 289 289 289 289 289 289 288 288 286 285 285 285 287 288 288 288 287 286 285 284 284 284 284 283 282 282 282 281 282 282 282 282 282 283 284 285 286 287 286 286 286 286 286 286 286 286 286 285 285 285 285 285 285 285 285 286 286 286 286 286 286 286 287 287 287 287 286
289 289 289 289 289 288 288 288 288 288 288 289 289 289 289 289 290 290 290 289 289 289 289 289 289 289 289 288 287 287 287 288 288 288 288 288 287 286 284 284 284 284 283 282 282 282 281 281 281 281 281 281 282 283 284 285 286 286 285 286 286 286 287 287 287 286 286 285 285 285 285 285 285 285 285 286 286 286 286 286 286 286 286 287 286 287
289 288 288 288 288 288 288 288 288 288 289 289 289 289 289 289 290 290 290 289 289 289 289 289 289 289 289 289 288 288 288 288 288 288 288 288 287 286 285 284 284 284 284 283 282 282 281 280 280 280 280 281 282 283 284 284 284 284 285 285 286 286 286 287 287 287 286 285 285 285 285 285 285 285 285 285 285 285 285 285 285 286 286 286 286 286
288 288 288 288 288 288 288 288 288 289 290 290 290 290 290 290 290 290 290 289 289 289 289 289 289 288 288 288 288 289 289 288 288 288 288 288 287 286 285 284 284 284 284 284 283 282 281 280 280 279 280 280 281 282 283 283 283 283 284 285 285 286 286 287 287 287 286 286 285 285 285 285 285 284 284 284 284 284 283 284 284 285 285 285 285 285
288 288 288 289 289 289 288 289 289 290 290 290 290 290 290 289 289 289 289 288 288 289 289 289 288 288 288 288 288 288 288 288 288 288 288 287 287 286 285 284 284 283 284 284 283 283 282 281 281 280 280 280 280 281 282 282 283 283 283 283 283 284 285 286 286 286 286 286 285 285 284 284 284 284 283 284 284 283 283 283 284 284 284 284 283 283
288 288 289 290 290 290 290 290 291 291 291 290 290 289 289 288 288 288 287 287 287 287 287 287 287 287 287 287 287 288 288 288 288 288 288 286 286 286 286 285 284 284 284 283 283 283 282 282 281 281 281 281 281 281 281 282 283 283 283 282 282 283 285 285 285 286 285 285 285 284 284 284 284 284 284 284 284 284 284 283 283 283 284 284 283 283
288 288 289 290 290 290 290 291 291 290 290 290 289 289 288 288 287 287 286 286 286 286 286 286 286 286 285 286 286 287 287 288 287 287 287 286 286 286 286 285 285 284 284 283 283 283 283 282 282 281 281 281 281 281 281 282 283 283 283 282 283 283 284 284 285 285 285 285 285 285 284 284 283 283 283 283 283 284 284 284 284 284 283 283 283 283
289 289 290 290 291 291 291 290 290 289 289 288 288 288 288 288 287 287 286 285 285 285 285 285 285 285 284 284 285 286 287 288 288 288 287 287 286 286 286 286 286 285 284 283 283 282 283 283 283 282 282 282 282 281 280 281 282 282 283 283 283 282 281 282 284 285 285 284 284 284 284 283 283 283 283 283 283 283 284 284 284 284 284 283 283 283
289 289 290 290 290 290 290 289 289 288 288 287 288 288 288 288 288 287 287 286 286 286 286 286 285 285 284 283 284 284 285 287 287 288 288 288 287 287 287 286 286 286 285 284 283 282 282 282 282 282 283 283 282 281 281 281 281 281 282 283 283 282 281 282 283 284 284 284 284 284 283 283 283 283 283 283 283 283 283 283 283 283 284 284 284 283
289 289 290 289 289 289 289 288 288 288 288 287 288 288 288 288 288 288 287 286 286 286 286 286 285 284 283 283 283 284 285 286 286 287 287 287 287 287 287 286 286 286 285 284 283 282 282 281 281 282 283 283 282 281 281 281 281 281 282 283 283 283 283 283 283 283 283 283 283 283 283 283 283 282 282 281 282 282 282 282 282 283 283 283 283 283
289 289 289 289 289 288 288 288 288 288 288 288 287 288 288 288 288 288 287 287 286 286 286 285 284 283 282 283 283 284 284 284 285 286 286 286 286 286 286 286 286 285 284 284 284 283 283 282 282 282 282 281 281 281 281 281 281 281 281 282 282 282 283 283 283 283 283 282 282 283 283 283 282 281 280 280 280 281 281 282 282 282 282 283 283 283
288 288 288 288 288 288 288 288 288 288 287 287 287 287 288 288 287 287 287 286 286 285 285 285 284 283 282 283 283 283 283 284 284 284 285 285 285 285 285 285 285 285 284 284 283 283 283 283 283 282 281 280 279 280 280 281 281 281 281 282 282 282 282 282 282 283 283 282 282 282 283 282 281 280 279 279 280 280 281 281 282 282 282 283 283 283
288 288 288 288 288 288 288 288 288 287 287 287 287 287 287 287 287 287 286 286 286 285 284 284 283 283 283 283 283 284 283 283 283 283 283 283 284 284 284 284 284 284 284 283 283 283 283 283 283 282 281 280 279 279 279 280 281 281 281 282 281 281 281 281 282 283 283 282 282 282 282 281 280 279 279 279 279 279 280 280 281 282 283 283 283 283
289 288 288 288 287 287 287 287 287 287 286 286 286 287 287 287 287 287 286 286 285 285 284 284 283 283 283 283 284 284 284 283 283 283 282 283 283 283 283 282 282 282 282 282 282 282 282 283 283 283 283 281 280 280 279 280 281 281 282 282 281 281 281 281 282 282 282 282 282 282 281 281 280 280 279 278 278 278 279 280 281 282 282 283 283 283
289 288 288 288 287 287 287 287 287 286 286 286 286 286 286 287 287 286 286 286 285 285 284 284 284 284 283 283 283 283 283 282 282 282 282 282 282 282 281 281 281 280 280 280 280 280 281 281 282 283 284 284 282 281 280 280 281 281 281 281 281 281 281 281 281 282 282 281 281 281 281 281 281 280 279 278 278 278 278 279 280 281 282 283 283 283
288 288 288 287 287 287 287 287 287 286 286 286 286 286 286 286 286 286 286 285 285 285 285 285 285 284 283 283 283 283 282 282 281 281 281 281 281 281 281 280 280 279 278 278 278 278 278 278 279 280 282 284 284 284 282 281 281 281 280 281 281 281 281 281 281 281 281 281 281 281 281 280 280 280 279 278 278 277 277 278 279 280 281 282 282 283
Wind_Speed
0 0 0 1 2 2 3 4 4 4 3 2 2 2 2 2 2 2 2 2 2 2 2 2 2 2 2 2 3 4 4 4 4 4 3 3 3 3 3 3 3 3 3 3 3 3 3 3 3 4 5 5 5 6 6 6 6 7 7 7 8 8 9 9 9 10 10 10 10 10 10 10 10 10 10 10 10 10 11 11 11 11 11 11 12 12
1 1 1 2 3 3 2 3 4 4 3 2 2 2 2 2 2 2 2 3 3 3 2 2 2 2 2 2 2 3 3 3 3 3 3 3 3 3 3 3 3 3 3 3 2 2 2 3 3 3 4 4 5 5 5 6 6 6 7 7 8 8 9 9 9 9 10 10 10 10 10 10 10 10 10 10 11 11 11 11 11 11 11 12 12 13
2 2 2 3 3 3 3 3 3 3 3 3 2 2 2 2 2 2 2 2 2 2 2 2 2 2 2 2 2 2 2 3 3 2 2 2 3 3 3 3 3 3 3 3 3 3 2 3 3 3 4 4 4 5 5 6 6 6 7 7 8 8 9 9 9 9 10 10 10 10 10 10 10 10 10 11 11 11 11 11 12 12 12 12 13 13
2 2 2 2 3 3 3 3 3 2 2 2 2 3 3 3 3 2 2 2 2 2 2 2 2 2 2 2 1 1 2 2 2 2 2 2 2 2 3 3 3 3 3 3 3 3 3 3 3 3 4 4 4 5 5 6 6 6 7 7 8 8 9 9 9 10 10 10 10 10 10 10 10 11 11 11 11 11 12 12 12 12 12 13 13 13
3 2 2 2 2 3 3 3 2 2 2 2 2 3 3 3 2 2 2 2 2 2 2 2 2 2 2 2 1 0 1 1 2 1 2 2 2 2 2 2 3 3 3 3 3 3 3 3 3 4 4 4 5 5 5 6 6 7 7 7 8 8 9 9 9 10 10 10 10 10 10 10 11 11 11 11 11 11 12 12 12 12 13 13 13 13
3 1 1 1 1 2 2 2 2 2 2 2 2 3 2 2 2 2 2 2 2 2 2 2 2 2 2 2 1 0 0 1 1 1 1 1 2 2 2 3 3 3 3 3 3 3 3 4 4 4 4 5 5 5 6 6 6 7 7 8 8 8 9 9 10 10 10 10 10 10 10 10 10 10 11 11 11 11 12 12 12 12 12 13 13 13
3 1 0 1 1 1 1 1 2 2 2 2 2 2 3 3 3 3 3 3 2 2 2 2 2 2 2 2 2 2 2 2 2 1 1 1 1 1 2 3 3 3 3 4 4 4 4 4 4 4 5 5 5 5 6 6 6 7 7 8 8 8 9 9 10 10 10 10 10 10 10 10 10 10 10 11 11 11 11 12 12 12 12 12 13 13
4 2 1 1 1 1 1 2 2 2 2 2 2 3 3 3 3 3 3 3 3 2 2 2 3 3 3 2 3 3 3 3 3 4 3 3 2 2 2 2 2 3 3 4 4 4 4 4 4 4 4 5 5 5 6 6 6 7 7 7 8 8 9 9 9 10 10 10 10 10 10 10 10 10 10 10 10 11 11 11 12 12 12 12 13 13
5 4 3 2 2 2 2 2 2 3 3 3 3 3 3 3 3 3 3 3 3 3 3 3 3 3 3 2 2 3 3 3 3 3 2 2 2 2 2 2 3 3 3 3 3 3 4 4 4 4 4 4 5 5 5 6 6 6 7 7 8 8 9 9 9 10 10 10 10 10 10 10 10 10 10 10 10 10 11 11 11 12 12 12 13 13
6 5 4 3 3 3 3 3 2 3 3 2 3 3 3 3 3 3 4 4 4 3 3 3 3 3 3 2 2 2 2 3 3 2 2 2 2 2 2 3 3 3 2 3 3 3 3 3 3 3 3 4 4 5 5 6 6 7 7 8 8 9 9 9 9 10 10 10 10 10 10 10 10 10 10 10 10 10 11 11 11 12 12 12 13 13
5 5 4 4 3 3 3 2 1 2 2 2 2 3 3 3 3 3 4 4 4 4 3 3 3 2 2 2 2 2 2 3 3 3 3 3 2 2 3 3 3 3 3 3 3 3 3 2 2 3 3 4 4 5 5 6 6 7 7 8 8 9 9 10 10 10 10 10 10 10 10 10 10 10 11 11 11 11 11 11 11 12 12 13 13 13
4 3 3 3 3 3 3 2 1 2 2 3 3 4 4 4 3 3 4 4 3 4 4 3 3 2 2 1 1 1 2 2 3 3 3 3 3 3 3 3 3 4 4 4 4 4 3 3 3 3 3 4 4 5 5 6 7 7 8 8 9 9 10 10 10 10 10 11 11 11 11 11 11 11 11 11 11 11 11 11 12 12 12 13 13 14
4 3 3 3 3 3 3 3 2 3 3 4 5 5 4 3 3 3 3 4 3 2 2 2 2 2 2 1 1 1 2 2 3 3 3 3 3 3 2 3 3 3 4 4 5 5 5 4 4 4 4 4 4 5 5 6 7 8 8 9 9 10 10 10 11 11 11 11 11 11 11 11 11 11 11 11 11 12 12 12 12 12 12 13 13 14
4 3 3 4 4 4 4 4 4 4 5 5 4 3 1 2 2 2 3 3 2 1 1 2 2 2 2 2 2 1 1 2 3 3 4 3 3 2 1 2 3 3 3 4 4 4 4 4 4 4 4 5 5 5 5 6 7 8 8 9 9 10 10 10 11 11 11 11 11 11 11 11 11 11 11 11 11 12 12 12 12 12 12 13 13 14
5 4 4 5 5 5 4 4 4 5 4 3 2 1 1 2 2 3 3 3 2 2 2 3 3 3 3 2 2 1 1 2 3 3 4 3 2 2 1 2 3 3 3 3 3 3 3 3 3 4 4 4 4 4 5 6 8 8 9 9 9 10 10 10 10 10 10 10 10 10 11 11 11 11 11 11 11 11 11 12 12 12 12 13 13 13
4 4 5 6 6 5 4 4 4 4 3 1 1 2 2 3 3 3 3 3 2 2 2 3 4 3 3 3 3 2 1 2 2 3 4 3 2 2 1 2 3 3 3 3 3 3 3 3 3 3 4 4 4 5 6 7 8 9 9 9 9 9 9 9 9 9 9 9 9 9 10 10 10 10 10 10 10 11 11 11 12 12 12 13 13 13
4 4 5 6 6 5 4 3 3 3 1 1 2 2 3 3 3 3 3 3 2 2 2 3 3 3 2 3 3 2 1 2 2 3 4 3 2 2 1 2 3 3 3 3 3 3 3 3 3 3 3 3 4 5 6 7 8 8 8 8 8 8 8 7 7 7 8 8 8 8 9 9 9 10 10 10 10 11 11 12 12 12 13 13 13 14
4 4 5 6 6 5 3 3 2 2 2 2 2 2 2 2 2 2 3 3 3 3 3 3 3 3 3 2 3 3 1 1 2 3 4 4 2 2 2 2 3 3 3 3 3 3 3 3 3 3 3 4 5 6 7 7 8 8 7 7 6 6 6 6 6 6 7 7 8 8 9 9 10 10 10 11 11 12 12 12 13 13 13 14 14 14
5 5 6 6 5 4 3 3 3 3 3 3 3 3 3 2 2 2 3 3 3 3 3 3 3 3 3 1 2 4 2 1 2 3 3 4 2 1 3 2 2 3 4 3 3 3 3 3 3 4 5 5 6 6 7 7 7 7 6 5 5 4 4 5 5 6 7 8 8 9 10 10 11 11 11 12 12 12 13 13 13 14 14 14 14 15
6 6 6 5 5 4 4 4 4 4 4 3 3 3 3 3 3 3 3 3 3 3 3 3 3 3 2 1 2 3 2 0 2 3 3 4 3 1 2 2 2 3 4 3 3 2 3 3 4 4 5 5 6 6 6 6 6 6 5 4 3 3 4 5 6 7 8 9 10 10 11 11 11 12 12 12 13 13 13 13 14 14 14 14 15 15
6 7 6 5 4 4 4 4 4 4 4 4 4 4 3 3 4 4 4 3 3 3 3 3 3 3 1 1 1 2 2 0 2 2 2 3 3 2 1 1 2 3 4 3 3 2 3 3 4 4 4 5 5 6 6 6 6 5 4 3 3 3 4 6 7 8 9 10 10 11 11 11 11 12 12 12 13 13 13 13 14 14 14 14 15 15
6 6 6 6 5 5 4 4 3 4 5 5 4 4 3 4 4 4 4 3 3 3 3 3 2 1 1 1 1 2 2 0 1 2 2 3 3 2 2 1 2 3 4 3 3 3 3 4 4 4 4 5 5 5 6 6 5 5 4 3 3 4 6 7 8 9 10 10 10 11 11 11 11 11 12 12 12 13 13 13 14 14 14 15 15 15
6 6 5 5 5 5 4 3 2 3 4 4 4 4 3 3 3 3 3 3 3 2 2 1 0 1 0 1 0 1 2 1 1 2 2 3 2 1 2 1 1 3 3 3 3 3 3 4 4 4 4 4 5 5 5 5 5 4 3 3 4 5 7 8 9 10 10 10 10 10 11 11 11 11 12 12 12 13 13 13 14 14 15 15 15 16
7 7 6 5 4 4 3 2 2 3 3 3 2 1 0 1 1 1 2 2 2 1 1 1 0 1 2 2 2 2 2 2 2 2 2 3 3 1 1 0 2 3 3 3 3 3 4 4 4 4 4 4 4 4 5 5 5 4 4 4 5 6 8 9 10 10 10 10 10 10 11 11 11 11 12 12 12 13 13 14 14 15 15 15 16 16
7 6 5 4 4 4 3 3 3 4 4 3 2 2 2 3 3 3 3 2 2 2 1 1 2 3 3 3 3 3 3 3 2 2 2 3 3 2 1 1 2 3 3 3 3 4 4 5 4 4 3 3 4 4 5 5 5 5 5 5 6 8 9 10 10 10 10 10 10 11 11 11 12 12 12 12 13 13 13 14 14 15 15 16 16 17
7 6 5 4 5 5 6 6 6 6 6 5 4 4 4 4 4 3 3 2 2 2 2 3 4 3 2 2 2 2 3 3 2 2 2 2 3 2 1 1 1 2 3 4 4 4 5 5 4 4 3 3 3 4 5 5 5 5 6 7 8 9 10 10 11 10 10 10 11 11 11 12 12 12 13 13 13 13 14 14 14 15 15 16 16 16
7 6 5 6 6 7 8 8 8 9 9 8 7 6 5 4 4 3 3 3 3 3 3 4 4 3 2 2 2 2 2 3 3 2 2 2 3 2 2 1 1 2 4 4 4 4 5 5 5 4 3 2 3 4 4 5 5 6 7 8 9 10 11 11 11 11 10 11 11 11 12 12 12 13 13 13 13 13 14 14 14 15 15 15 14 14
8 7 6 7 8 9 9 10 10 11 11 10 10 9 7 5 4 4 4 4 3 3 3 4 4 3 2 2 2 2 2 2 3 2 2 2 2 2 1 1 1 2 3 4 4 4 5 5 4 4 3 2 2 3 4 5 6 7 8 9 10 11 11 11 11 10 11 11 11 12 12 13 13 13 13 13 13 13 13 14 14 14 14 12 10 9
8 7 7 8 9 9 10 10 10 11 12 12 11 10 6 5 4 4 4 4 4 4 4 4 3 3 2 2 2 2 2 2 2 3 2 2 2 2 1 1 2 2 3 3 3 4 4 3 3 2 2 2 2 3 3 5 6 7 8 9 10 10 10 10 10 10 11 11 12 12 13 13 13 13 13 13 13 13 13 14 13 12 11 9 8 8
8 8 7 8 8 9 9 9 9 10 12 12 11 9 6 4 3 3 3 4 4 4 4 4 3 3 2 2 2 2 2 2 3 3 3 2 2 2 1 1 2 2 2 2 3 3 2 2 2 2 2 2 3 3 3 4 5 6 6 7 8 8 9 9 10 10 11 12 12 13 13 13 13 13 13 13 13 13 13 13 12 10 8 7 7 7
8 8 7 7 7 6 6 7 7 8 10 11 10 9 6 4 3 3 3 4 4 4 4 4 3 3 3 2 2 2 1 2 3 4 3 2 2 2 1 2 2 2 1 2 2 2 2 1 1 2 2 3 3 4 4 4 4 4 4 5 5 6 8 9 9 10 11 11 12 12 12 12 12 12 13 13 13 13 13 13 12 10 7 7 7 7
8 7 6 6 5 5 4 4 5 5 7 7 7 6 5 4 3 3 3 4 4 4 4 3 3 3 3 3 3 2 1 2 3 4 4 2 2 2 2 2 2 2 1 1 2 2 2 2 1 1 2 3 3 3 4 4 4 4 4 4 5 5 7 8 9 9 10 10 11 11 11 11 12 12 12 12 12 13 13 13 12 10 7 7 7 7
7 6 5 5 4 4 4 4 4 4 4 4 4 4 4 4 4 3 4 4 4 4 4 4 4 3 4 4 3 3 2 1 3 5 5 2 2 1 1 2 2 2 2 2 2 3 3 3 3 3 3 3 3 3 4 4 4 4 4 4 4 5 6 7 7 7 8 8 8 9 10 10 11 11 11 12 12 12 12 12 12 10 8 7 7 8
6 6 5 5 5 5 4 4 4 4 4 4 4 4 4 4 4 4 4 4 4 4 4 4 4 4 4 3 3 3 3 2 3 5 5 3 2 1 2 2 2 2 2 2 3 3 3 4 4 3 3 3 3 3 4 4 3 3 3 4 4 5 5 5 6 6 6 6 6 7 7 8 8 9 10 10 10 11 11 12 12 12 12 9 8 8
6 6 6 6 6 6 6 6 5 5 5 4 4 4 4 4 4 4 4 4 4 4 4 4 4 4 4 3 3 3 3 2 3 4 5 3 2 2 2 2 2 2 2 3 3 3 3 4 4 4 4 4 4 3 3 3 3 3 3 4 4 5 5 5 5 5 6 6 6 5 5 6 6 7 7 8 9 10 11 12 13 14 14 13 12 10
6 7 7 6 6 6 6 6 6 6 6 5 5 5 4 4 4 4 4 4 4 4 4 4 4 4 4 4 3 3 3 2 2 3 4 3 2 2 2 2 2 2 2 3 3 3 3 4 5 5 5 5 4 3 3 2 2 3 3 4 4 5 5 5 5 5 6 6 6 5 5 5 6 6 6 8 10 11 12 13 14 15 15 16 15 14
7 7 7 7 6 6 7 6 6 6 6 6 5 5 5 5 5 4 4 4 4 4 4 4 4 4 5 4 4 4 3 3 2 2 3 3 2 2 2 2 2 2 3 3 3 4 4 4 5 5 5 5 4 3 3 2 3 3 4 4 5 5 5 5 5 5 6 6 6 6 5 6 6 6 7 9 10 11 12 13 14 14 15 15 16 16
7 7 7 6 6 6 6 6 6 6 6 5 5 6 6 6 5 5 4 4 5 5 5 4 4 5 6 6 5 5 5 4 4 3 4 3 3 3 3 3 3 3 3 3 4 4 4 4 5 5 4 4 5 5 4 4 4 4 4 5 5 5 5 5 5 5 5 6 6 6 6 6 6 6 6 7 7 8 8 9 10 11 12 13 14 15
7 7 6 7 6 6 6 6 6 5 5 5 5 5 5 6 5 5 4 4 4 4 4 4 4 4 4 4 5 6 6 4 3 3 3 3 3 3 3 3 3 4 4 4 4 4 4 4 5 5 5 5 5 5 5 5 5 5 5 5 5 5 5 5 5 5 5 6 6 6 6 6 6 6 6 6 6 7 7 7 7 8 8 8 10 12
7 6 6 7 6 6 6 5 5 5 5 5 5 5 5 4 4 4 3 2 2 3 3 2 2 2 2 3 4 5 6 5 4 4 4 3 3 3 4 4 4 4 4 4 4 4 5 5 6 6 6 5 5 5 5 5 5 6 6 5 5 4 5 5 5 6 6 6 6 6 5 5 6 6 6 6 7 7 7 6 6 7 7 7 7 8
7 6 6 5 5 5 5 5 5 4 4 4 4 4 4 4 4 3 3 2 2 2 2 2 2 3 3 4 4 5 6 5 5 5 4 4 4 4 4 4 4 4 4 4 5 5 5 6 6 7 6 6 6 7 7 6 7 7 8 7 6 6 6 6 6 6 6 6 5 5 6 6 7 7 7 7 7 7 7 7 7 8 8 7 7 7
7 6 5 4 4 5 4 4 4 4 4 4 4 5 5 4 4 4 3 3 3 3 3 3 4 4 5 5 5 6 6 6 6 5 5 5 5 5 5 5 5 4 4 5 5 5 6 6 6 7 6 6 6 6 7 7 7 7 7 7 7 8 8 7 6 5 5 5 5 5 6 6 6 7 7 7 7 7 7 8 9 9 9 8 7 7
5 5 4 4 4 5 5 5 4 4 4 4 4 5 5 4 4 4 4 4 4 5 4 4 4 4 4 4 4 5 5 6 7 7 7 7 7 7 7 6 5 5 4 4 5 5 6 6 7 7 7 6 7 7 8 7 7 7 7 7 7 7 5 4 4 4 5 5 5 6 6 6 6 7 7 7 7 7 8 9 10 10 10 9 8 8
5 4 4 4 4 4 4 4 4 4 4 4 4 4 4 4 5 5 4 4 4 4 4 4 4 4 4 4 4 4 4 5 6 7 7 7 7 6 6 6 6 5 5 4 4 5 5 6 6 6 6 6 7 7 8 7 7 7 7 7 7 7 6 5 5 6 6 6 6 6 6 6 7 7 7 7 7 8 8 8 8 8 9 8 8 8
5 5 5 4 4 5 5 5 5 4 4 4 4 4 4 5 5 5 4 4 4 4 3 3 3 3 4 4 4 4 3 4 4 4 5 6 6 6 6 5 5 5 5 5 5 5 5 5 6 6 5 6 7 7 8 8 8 8 8 8 8 8 8 7 7 7 6 6 6 6 6 7 7 7 7 7 7 8 8 8 8 8 8 8 8 8
5 5 5 5 5 5 6 5 5 5 5 5 4 4 4 4 4 4 4 4 4 3 3 3 3 3 3 3 3 3 3 3 3 3 3 4 5 5 5 4 4 4 4 5 5 6 6 6 6 6 6 6 7 8 8 8 8 8 8 8 7 7 7 7 7 6 6 7 7 7 7 7 7 7 8 8 8 8 8 8 8 8 8 8 8 8
5 5 5 5 5 5 5 5 5 5 5 5 4 4 4 4 4 4 4 4 4 4 3 4 4 4 5 4 3 3 3 3 2 2 2 3 3 3 3 3 3 4 4 5 6 6 7 7 7 7 6 7 7 7 8 8 8 8 8 7 7 7 7 6 6 6 6 6 7 7 7 7 7 8 8 8 8 8 8 8 8 8 8 8 8 8
6 6 6 6 5 5 5 5 5 5 5 4 4 4 4 5 5 5 4 5 4 4 4 4 5 5 5 5 4 4 3 3 2 2 2 2 2 2 2 2 3 3 4 5 6 7 7 8 8 8 8 7 7 7 8 7 7 7 7 7 7 7 7 7 6 6 6 6 6 6 6 6 7 8 8 9 9 8 8 8 8 8 8 8 8 8
5 6 6 6 6 6 5 5 5 5 5 5 4 4 5 5 6 6 5 5 4 4 4 5 5 5 5 5 4 4 3 3 2 2 2 2 2 2 2 3 3 3 4 5 6 6 7 8 9 9 9 9 8 8 8 7 7 7 7 6 6 7 7 7 6 6 6 6 6 5 5 6 7 7 8 9 9 10 9 9 8 8 7 7 8 8
5 5 6 6 6 6 6 5 5 5 5 5 5 5 5 5 5 5 5 5 4 4 5 5 5 5 5 4 4 3 2 2 2 2 2 2 2 2 2 2 3 3 4 4 4 4 5 5 7 8 10 11 10 9 8 7 7 7 6 6 6 6 6 6 6 6 6 6 6 6 7 7 7 7 7 9 10 10 10 9 9 8 7 7 7 8
6 5 5 6 6 6 5 5 5 5 5 5 5 5 5 5 5 5 5 5 5 5 5 5 5 5 4 4 3 2 2 2 2 2 2 2 2 2 2 3 3 3 3 3 3 3 3 3 4 5 7 10 12 11 8 7 7 6 6 6 6 5 5 6 6 6 7 7 7 7 7 7 7 7 7 8 9 10 10 9 9 8 7 7 8 8
Wind_Direction
305 291 182 188 201 211 213 209 217 222 213 196 194 199 193 213 223 228 223 242 252 257 253 254 260 271 280 309 322 326 326 325 326 327 330 333 337 338 339 337 337 338 337 342 347 350 348 343 335 331 327 327 328 329 331 332 333 334 334 333 332 331 331 330 330 330 331 331 331 332 333 332 331 328 325 324 322 321 319 318 317 315 313 310 307 304
200 202 201 206 217 224 224 209 215 224 222 206 203 206 212 231 234 229 218 225 237 247 250 247 248 254 256 273 302 316 318 316 315 315 315 316 317 317 316 314 312 311 312 313 316 318 318 316 314 314 315 318 323 327 330 333 334 335 335 334 333 332 330 330 329 329 328 328 327 327 327 325 323 321 319 318 317 316 315 313 312 310 308 306 303 301
204 206 204 202 214 224 229 210 210 216 224 218 214 213 215 232 238 236 227 219 225 238 253 250 244 240 239 236 270 308 314 309 305 303 303 301 300 299 297 294 292 290 288 286 287 288 289 292 298 303 308 315 322 326 330 332 333 333 332 331 330 328 327 326 325 323 323 322 321 320 319 317 316 315 314 314 313 312 311 310 309 307 306 304 302 300
225 212 203 194 207 221 231 213 204 206 221 228 228 224 219 228 234 238 239 238 234 235 244 247 247 243 235 228 235 286 325 317 311 307 303 298 295 293 289 287 286 286 283 282 284 286 287 295 301 307 313 318 323 326 327 328 328 327 325 324 323 321 320 318 317 316 315 314 313 312 311 310 309 309 309 309 309 308 307 306 306 305 304 303 301 300
245 221 196 190 204 218 225 212 201 199 209 223 230 231 228 231 234 236 232 238 239 239 240 242 240 238 231 224 213 205 345 333 330 329 329 322 317 311 306 303 302 301 300 300 301 302 305 308 312 315 317 319 321 322 321 320 320 318 317 315 314 312 311 309 308 307 306 305 304 303 303 303 303 303 303 304 304 304 303 303 303 302 302 301 300 299
261 241 190 207 211 213 215 207 203 204 206 212 217 221 224 227 230 229 220 219 223 227 230 234 235 235 230 224 206 156 327 314 323 336 341 336 333 331 327 322 320 318 316 314 314 314 313 313 314 315 314 314 314 313 312 311 310 309 308 307 306 304 302 301 300 299 298 297 297 297 297 297 297 297 298 299 299 299 299 299 299 299 299 299 298 298
267 257 233 238 231 222 204 207 210 211 208 211 211 211 211 216 221 222 216 212 212 214 217 220 226 229 227 211 196 191 206 210 210 214 225 269 305 316 319 319 319 317 315 314 312 310 309 308 307 307 307 306 305 304 302 303 302 301 300 299 298 297 295 294 293 293 292 291 291 292 292 292 292 293 293 294 294 295 296 296 296 297 297 297 297 297
263 253 237 238 238 233 214 207 208 212 216 215 213 211 207 206 208 210 210 208 209 212 214 213 216 218 220 206 201 206 215 215 212 209 209 211 220 243 276 293 300 303 306 305 303 301 298 297 297 298 298 298 298 297 296 297 296 295 294 293 291 290 289 288 288 288 288 288 288 289 288 289 289 289 290 290 291 292 293 294 295 296 296 296 296 296
261 258 247 233 230 234 230 207 197 198 213 225 227 223 216 207 201 197 198 200 203 208 216 216 214 211 206 202 209 219 230 242 244 242 246 238 240 251 266 270 274 280 290 289 288 286 284 284 286 289 291 292 293 293 293 293 292 291 289 287 286 286 286 286 286 287 287 288 288 288 288 289 289 289 290 290 291 292 293 294 295 296 296 296 296 296
258 258 256 239 230 234 245 222 191 177 198 230 245 249 246 231 217 204 201 197 194 195 209 219 221 216 203 198 206 219 233 243 255 268 280 271 292 307 297 278 272 270 267 266 266 265 266 270 275 282 286 289 290 291 292 290 289 287 286 285 285 286 287 287 288 288 289 289 289 290 290 290 290 291 291 292 293 294 295 296 296 297 297 297 296 295
255 256 257 248 236 233 249 241 194 156 182 219 241 251 255 249 240 229 224 209 194 185 193 207 218 225 221 210 209 216 236 239 236 232 229 226 243 265 264 260 257 252 244 241 239 239 241 249 261 273 279 283 286 288 288 287 287 286 285 286 286 287 288 289 289 290 290 290 290 291 291 291 292 292 293 293 294 294 295 295 296 296 296 296 295 294
253 252 253 250 241 230 233 230 192 159 180 209 222 225 222 224 231 240 246 238 214 191 184 187 197 212 226 232 233 238 247 251 246 238 229 222 220 222 231 233 227 222 221 220 218 215 215 222 235 251 264 272 278 282 285 285 285 285 285 286 287 288 289 289 289 289 289 289 290 290 291 291 292 292 293 293 293 294 294 294 294 294 294 293 293 293
246 244 247 248 244 235 223 210 195 189 197 212 221 223 212 194 199 226 249 255 244 207 179 185 191 194 195 207 230 254 263 263 260 255 248 236 226 222 233 236 229 221 218 218 214 208 205 213 225 237 248 259 268 275 279 282 284 285 286 287 288 288 289 289 289 289 289 289 289 290 290 291 291 291 292 292 292 292 292 292 292 292 291 291 291 290
237 234 236 240 240 235 225 216 211 208 209 214 223 227 190 146 164 203 234 241 233 198 175 219 219 204 180 178 184 219 262 267 264 258 250 240 227 217 237 251 247 238 232 234 227 217 205 219 229 236 240 249 260 271 279 282 285 287 288 289 289 289 289 289 289 288 288 288 289 289 290 290 290 291 291 291 291 291 291 291 291 291 290 290 289 289
234 230 233 237 236 231 223 219 221 223 219 209 201 170 108 140 171 198 221 223 209 184 191 228 232 221 186 165 159 172 238 261 263 260 257 242 216 190 221 250 249 241 234 240 239 229 212 229 241 248 246 254 268 284 293 293 292 292 291 290 290 289 289 289 288 288 288 288 289 289 289 290 290 290 291 291 292 292 292 292 292 292 291 291 290 289
233 229 233 238 238 234 221 217 224 232 228 184 156 163 182 187 191 201 220 223 211 196 210 234 239 230 187 146 135 143 220 257 263 266 270 254 209 167 202 246 249 243 231 236 239 238 230 239 249 257 261 270 283 293 297 293 292 292 291 290 289 288 288 288 288 289 289 290 291 291 292 292 293 293 294 295 295 295 295 295 294 294 293 292 291 290
229 227 233 239 241 237 221 210 219 228 213 167 171 195 213 208 201 201 219 221 216 213 225 237 248 249 211 153 138 139 202 254 265 270 275 264 215 152 173 241 255 254 241 238 240 243 245 250 255 260 265 277 286 291 291 290 289 288 287 287 287 288 288 289 290 292 294 295 297 297 298 298 298 298 298 298 298 297 297 296 295 294 293 292 291 290
224 223 229 236 239 237 219 207 209 212 196 188 192 204 224 224 214 206 214 217 220 224 231 232 241 252 265 193 141 128 183 247 271 276 274 268 236 150 147 218 252 259 256 248 243 243 249 259 266 272 277 284 286 286 285 284 284 284 284 284 285 287 290 294 298 301 304 304 305 304 304 303 302 301 300 299 298 297 296 295 294 293 292 291 290 290
223 221 225 231 236 236 225 214 207 203 198 197 194 194 204 208 208 209 215 218 223 228 232 234 236 246 264 276 108 113 151 235 274 278 271 272 257 171 144 202 240 252 256 253 250 251 258 265 270 272 274 276 278 279 279 279 279 279 279 281 283 289 296 304 309 311 311 310 309 307 305 303 302 301 300 298 297 296 295 294 293 292 291 290 289 289
225 221 220 225 230 233 231 225 216 206 200 194 192 193 199 196 199 207 213 216 223 230 234 239 241 243 249 262 99 104 123 227 270 270 270 274 269 231 153 208 242 254 258 256 254 257 265 270 270 268 266 267 269 272 274 274 274 273 273 274 281 294 307 313 315 314 312 310 308 306 304 302 301 300 299 298 296 295 294 293 292 292 291 290 289 289
230 226 218 217 222 230 233 228 217 203 192 186 189 198 203 197 200 205 208 209 213 220 226 235 241 245 246 257 91 91 96 304 279 277 279 276 266 241 161 205 249 264 268 266 262 261 267 272 274 271 264 264 266 269 271 270 268 265 263 270 285 304 314 317 316 314 312 309 307 305 303 302 300 299 298 297 296 295 295 294 293 293 292 291 291 290
233 232 222 217 220 229 240 239 215 188 173 178 189 200 204 200 203 204 201 201 204 211 217 229 244 294 359 341 59 81 87 356 286 286 288 277 262 229 137 181 253 270 272 272 271 272 274 276 276 272 267 263 264 266 266 263 259 256 256 270 293 310 317 317 316 313 311 308 306 304 302 302 301 300 299 298 298 297 296 296 295 295 294 293 292 292
236 239 234 222 221 227 240 237 198 164 166 183 198 207 207 204 205 204 192 190 195 202 208 214 37 30 344 265 194 135 127 164 249 270 271 272 265 228 123 170 253 269 272 279 285 287 284 280 278 273 266 256 254 256 257 255 252 251 257 278 300 312 316 316 315 312 310 307 306 304 303 302 301 301 300 300 299 298 298 297 296 296 295 294 293 291
235 242 243 229 219 217 222 202 171 158 166 182 191 197 165 123 107 108 115 134 143 146 135 130 207 225 219 219 206 183 154 167 202 238 253 265 271 274 117 205 274 278 278 286 293 293 288 282 277 271 263 243 237 240 244 246 248 251 262 285 302 311 315 315 313 311 309 307 306 304 304 303 302 301 300 299 299 298 297 297 296 295 294 293 291 290
230 237 239 226 209 199 194 180 169 163 162 158 145 123 101 92 86 83 82 92 105 121 150 208 229 231 219 215 210 192 153 163 191 226 249 263 271 274 269 272 282 285 287 292 293 290 285 280 275 267 256 231 218 219 230 239 247 257 270 288 301 308 312 312 311 309 307 306 305 304 304 303 302 301 299 299 298 297 297 296 295 294 293 292 291 289
226 231 229 210 192 183 179 172 167 162 158 154 150 144 136 125 115 109 108 120 137 161 190 223 234 235 218 224 224 203 153 159 185 219 245 264 274 274 260 257 279 288 291 292 288 284 280 277 274 267 254 225 205 205 219 235 249 264 277 289 299 305 309 308 307 306 305 304 304 303 303 302 301 300 299 298 297 296 295 295 294 294 293 293 291 288
220 221 210 191 180 175 171 167 164 161 159 158 155 153 148 143 142 147 160 165 171 182 206 228 237 239 225 222 226 215 164 161 178 206 232 255 268 270 265 273 291 294 293 290 285 278 274 273 271 267 258 231 202 200 216 234 252 267 279 289 297 301 304 304 303 302 301 301 301 301 300 300 299 299 298 297 296 295 295 295 295 295 294 293 291 287
212 208 195 183 175 170 167 165 163 162 161 159 158 156 155 156 167 179 186 174 174 187 211 229 239 243 240 234 232 224 192 174 173 180 208 237 254 263 272 297 302 295 293 291 283 273 262 259 259 261 260 243 221 215 220 238 254 268 278 287 293 296 298 298 298 297 298 298 298 298 298 298 297 297 296 296 295 295 294 295 295 295 294 292 288 283
204 197 188 179 173 169 165 164 164 164 164 163 163 164 167 174 188 194 183 164 170 188 210 224 235 243 251 257 259 250 229 191 164 159 186 223 246 258 272 286 288 289 296 296 288 272 249 236 234 243 255 250 242 236 233 242 255 267 275 284 288 291 293 293 293 294 295 295 295 295 295 295 295 295 295 294 294 294 294 295 295 294 292 288 284 281
193 188 182 177 172 169 167 166 167 169 170 170 171 174 181 190 199 193 156 157 172 193 210 220 227 234 241 254 259 253 233 176 150 151 182 217 243 259 271 272 279 291 311 308 300 285 256 205 187 197 229 239 243 244 245 248 256 265 273 282 286 288 289 290 291 291 292 292 292 292 292 292 292 292 292 292 292 292 293 294 294 293 289 286 282 281
186 183 180 175 172 171 171 172 173 175 177 179 181 184 190 197 194 177 150 165 182 200 214 220 223 225 225 236 244 243 226 147 144 156 187 219 250 271 283 282 288 298 321 315 306 299 293 237 170 173 202 225 235 241 245 251 258 266 275 282 285 286 287 289 290 290 289 289 289 290 290 290 290 290 290 290 290 290 290 291 291 290 287 284 282 281
184 183 179 173 171 171 173 176 178 180 183 186 189 191 193 194 188 177 167 179 192 206 219 224 225 225 224 232 242 250 249 136 149 165 189 219 253 273 284 286 290 297 305 288 282 284 292 293 277 230 232 247 254 257 255 257 260 267 275 279 282 284 288 289 289 289 288 289 289 289 289 288 288 287 287 287 287 287 287 288 287 286 284 283 282 282
182 180 176 172 171 172 176 178 180 183 185 187 189 189 187 187 186 185 183 187 198 209 220 225 226 227 229 235 244 254 271 177 161 167 183 211 248 271 279 279 282 285 288 273 264 264 272 283 290 292 286 282 278 274 269 263 261 262 268 275 280 284 288 289 289 288 288 289 289 289 288 287 286 285 284 284 283 283 283 283 282 280 279 280 281 282
181 180 176 176 178 180 183 183 185 186 187 188 187 185 181 183 186 189 192 195 203 213 221 226 227 228 229 233 240 247 255 231 173 164 175 204 239 262 271 270 273 276 280 274 270 268 268 274 280 287 290 287 281 276 273 267 262 261 264 272 278 283 285 284 284 284 286 287 288 288 288 287 286 285 283 282 281 280 279 279 279 277 276 277 278 280
184 185 183 183 184 186 188 188 189 189 190 190 190 188 184 186 188 191 193 196 204 215 222 229 231 233 232 233 237 241 242 232 182 167 174 200 227 250 262 262 267 274 279 277 277 277 276 278 284 290 294 293 287 279 272 265 259 256 257 261 265 268 271 274 276 279 282 283 283 284 286 287 287 286 284 282 281 280 280 280 279 278 276 275 274 275
188 190 189 188 188 189 190 192 192 193 193 193 192 190 187 189 191 193 193 195 200 210 219 227 232 237 240 243 246 249 253 252 211 186 187 207 229 250 261 263 268 273 276 276 277 279 282 285 288 289 289 288 285 281 274 269 265 263 262 262 263 265 268 272 275 278 280 280 281 283 285 286 287 287 285 285 284 284 283 282 280 278 276 273 271 269
192 193 191 191 190 191 192 192 194 194 195 193 191 189 189 192 195 196 193 194 199 205 213 219 225 231 235 243 249 255 261 265 257 242 230 235 244 255 262 267 269 270 270 274 278 281 284 286 286 285 281 278 279 284 291 295 292 287 283 282 283 283 282 279 276 275 276 277 278 280 282 284 285 286 286 287 287 286 284 281 279 277 274 272 270 267
195 195 193 191 191 192 193 194 194 195 194 192 191 190 193 198 200 200 197 199 204 209 214 217 221 227 231 239 246 253 259 261 261 257 251 250 251 254 261 267 268 268 267 272 277 280 282 283 284 284 282 280 283 289 298 301 299 295 292 292 290 286 282 278 275 273 274 277 278 280 281 282 285 287 289 289 288 286 283 279 277 276 275 274 271 268
196 197 195 193 193 193 194 195 194 193 191 190 190 192 196 203 205 205 201 200 206 213 220 225 229 232 229 234 242 249 254 252 247 240 241 242 245 251 259 265 268 269 269 269 270 271 272 273 277 280 286 289 291 292 295 296 296 297 299 296 290 283 278 278 280 281 282 282 282 283 283 285 287 288 288 287 284 283 282 282 282 281 281 282 278 274
196 197 197 195 193 193 195 195 192 188 184 184 185 188 194 200 201 198 187 184 194 207 216 225 237 244 240 238 241 243 245 241 235 228 224 221 229 241 256 262 267 269 269 265 262 261 262 266 269 271 275 280 285 289 291 290 292 295 299 296 291 285 285 289 291 290 286 284 284 285 287 287 286 284 282 281 281 282 284 286 287 286 285 284 284 282
196 198 198 194 191 190 193 190 185 179 175 175 178 181 188 192 192 186 174 178 189 198 197 208 226 234 234 232 234 235 234 232 229 227 218 208 213 227 245 254 260 264 265 263 261 259 259 263 267 270 272 275 279 281 282 283 286 289 290 289 289 290 294 291 287 283 279 277 278 280 282 283 282 281 281 282 283 283 286 287 287 286 285 281 280 281
195 197 194 187 182 181 184 180 174 169 169 175 183 187 188 190 191 190 186 194 200 202 198 210 222 230 233 231 230 227 224 220 217 215 212 206 208 215 228 238 245 252 257 260 260 258 257 261 265 268 271 275 278 280 281 282 283 284 284 286 289 291 290 284 278 275 275 277 279 281 283 285 287 287 287 287 287 286 285 284 283 282 281 278 276 274
190 189 185 179 173 169 166 166 166 167 171 184 192 194 189 187 190 194 198 204 205 204 199 209 219 229 238 241 239 233 223 216 214 214 213 208 208 213 225 232 238 242 248 256 261 263 262 262 263 266 269 273 276 278 281 284 284 283 282 283 287 290 289 286 287 289 289 288 289 290 290 290 290 290 289 288 287 286 285 282 279 277 275 274 273 271
182 179 174 169 164 161 161 169 173 175 178 188 193 193 186 185 190 197 204 209 208 205 198 204 214 230 242 247 248 245 237 222 215 213 214 209 207 210 224 235 241 246 249 257 265 270 272 267 266 267 271 273 275 276 278 281 282 282 281 282 282 282 281 288 293 295 292 289 287 287 288 291 292 292 291 288 287 286 284 282 279 276 274 274 273 272
176 173 171 166 164 165 172 175 177 178 179 185 187 187 180 182 188 195 204 211 213 210 203 204 215 230 241 243 243 242 240 226 212 203 203 200 200 205 219 236 247 254 258 260 265 269 274 273 272 272 273 272 272 273 276 279 281 281 280 280 278 276 275 280 285 288 288 288 289 289 292 295 296 295 293 290 287 285 283 282 282 281 279 277 275 274
175 175 174 171 171 175 179 177 176 176 180 183 185 185 183 184 189 197 207 212 216 216 214 215 223 234 242 242 240 238 236 225 207 192 186 189 194 202 218 236 252 263 267 267 267 267 267 271 275 278 280 276 272 269 269 274 277 279 280 279 278 277 277 279 281 284 287 289 291 293 296 300 300 297 293 291 288 286 284 283 283 283 282 280 278 275
176 176 175 173 174 177 178 176 175 177 181 186 189 191 192 192 196 203 210 214 217 220 222 223 228 234 239 241 242 241 240 233 219 201 191 194 202 214 230 247 259 267 271 273 272 271 269 270 272 275 277 276 273 270 268 269 271 274 277 279 281 281 281 282 284 285 287 288 291 296 303 304 300 295 291 291 290 289 287 285 284 282 281 280 278 276
177 176 174 173 173 175 175 175 176 179 184 189 194 197 200 198 200 203 209 212 216 221 225 227 229 231 234 236 238 241 245 245 244 240 235 240 248 256 264 270 273 275 275 274 273 272 270 268 265 264 263 265 267 269 270 268 268 269 274 278 280 282 282 283 285 286 286 287 291 296 302 299 296 294 295 295 293 290 287 285 283 281 279 278 278 277
177 177 175 174 174 175 175 176 178 181 186 190 195 198 199 197 198 201 206 209 214 219 224 227 228 229 230 232 233 235 238 244 252 259 264 268 273 277 280 281 282 282 279 274 270 267 265 261 257 252 249 250 254 261 266 267 268 270 273 276 278 280 282 283 285 287 288 289 289 290 288 288 290 293 296 294 291 289 288 286 284 282 280 279 277 276
179 178 175 174 175 176 176 176 179 183 188 189 192 194 195 194 195 199 205 209 213 218 224 227 229 230 232 232 232 231 231 240 252 260 265 270 276 281 283 285 286 285 281 277 272 269 266 262 253 245 239 238 241 249 259 265 269 272 273 274 276 279 282 284 287 290 292 292 292 291 289 289 289 289 288 287 287 287 287 286 285 284 283 282 280 278
178 175 173 173 174 175 175 177 181 186 190 192 193 194 195 195 196 200 204 207 212 218 224 228 230 232 234 235 235 233 234 249 259 266 270 275 282 284 283 281 280 279 278 279 279 280 281 281 273 258 241 231 230 234 248 259 268 274 276 276 277 281 284 287 290 292 294 294 294 294 294 292 289 286 283 283 285 286 287 287 286 286 286 286 285 284